Location: ???????
(55.4362°N, 38.1183°E)
Time: 03:40:27
(UTC+00:00)

NOSS 8 (A) - Pass Details

Date: 17 June 2021
Orbit: 369 x 1767 km, 63.3° (Epoch: 16 July)

Event Time Altitude Azimuth Distance (km) Brightness Sun altitude
Rises 19:34:54 0° 232° (SW) 2,398 8.0 -7.5°
Reaches altitude 10° 19:37:03 10° 233° (SW) 1,446 6.9 -7.7°
Maximum altitude 19:40:07 84° 321° (NW) 382 4.1 -7.8°
Drops below altitude 10° 19:43:03 10° 51° (NE) 1,391 7.1 -8.0°
Sets 19:45:05 0° 52° (NE) 2,293 8.2 -8.1°
